Year,Month,Day,Hour,Minute,Value (Times are PST for temperature in C)
2017,02,17,00,00,5.90
2017,02,17,00,01,5.90
2017,02,17,00,02,5.90
2017,02,17,00,03,5.80
2017,02,17,00,04,5.90
2017,02,17,00,05,5.90
2017,02,17,00,06,5.90
2017,02,17,00,07,5.90
2017,02,17,00,08,5.90
2017,02,17,00,09,5.90
2017,02,17,00,10,5.80
2017,02,17,00,11,5.80
2017,02,17,00,12,5.70
2017,02,17,00,13,5.70
2017,02,17,00,14,5.70
2017,02,17,00,15,5.70
2017,02,17,00,16,5.70
2017,02,17,00,17,5.70
2017,02,17,00,18,5.70
2017,02,17,00,19,5.70
2017,02,17,00,20,5.70
2017,02,17,00,21,5.80
2017,02,17,00,22,5.80
2017,02,17,00,23,5.80
2017,02,17,00,24,5.70
2017,02,17,00,25,5.70
2017,02,17,00,26,5.70
2017,02,17,00,27,5.70
2017,02,17,00,28,5.70
2017,02,17,00,29,5.60
2017,02,17,00,30,5.70
2017,02,17,00,31,5.70
2017,02,17,00,32,5.90
2017,02,17,00,33,6.10
2017,02,17,00,34,6.30
2017,02,17,00,35,6.50
2017,02,17,00,36,6.60
2017,02,17,00,37,6.80
2017,02,17,00,38,6.80
2017,02,17,00,39,6.80
2017,02,17,00,40,6.80
2017,02,17,00,41,6.70
2017,02,17,00,42,6.50
2017,02,17,00,43,6.50
2017,02,17,00,44,6.40
2017,02,17,00,45,6.40
2017,02,17,00,46,6.30
2017,02,17,00,47,6.20
2017,02,17,00,48,6.10
2017,02,17,00,49,6.00
2017,02,17,00,50,6.00
2017,02,17,00,51,5.90
2017,02,17,00,52,5.80
2017,02,17,00,53,5.80
2017,02,17,00,54,5.70
2017,02,17,00,55,5.60
2017,02,17,00,56,5.50
2017,02,17,00,57,5.50
2017,02,17,00,58,5.50
2017,02,17,00,59,5.50
2017,02,17,01,00,5.50
2017,02,17,01,01,5.50
2017,02,17,01,02,5.60
2017,02,17,01,03,5.60
2017,02,17,01,04,5.60
2017,02,17,01,05,5.60
2017,02,17,01,06,5.60
2017,02,17,01,07,5.50
2017,02,17,01,08,5.50
2017,02,17,01,09,5.40
2017,02,17,01,10,5.40
2017,02,17,01,11,5.40
2017,02,17,01,12,5.40
2017,02,17,01,13,5.30
2017,02,17,01,14,5.30
2017,02,17,01,15,5.40
2017,02,17,01,16,5.40
2017,02,17,01,17,5.40
2017,02,17,01,18,5.50
2017,02,17,01,19,5.60
2017,02,17,01,20,5.70
2017,02,17,01,21,5.80
2017,02,17,01,22,5.90
2017,02,17,01,23,6.00
2017,02,17,01,24,6.00
2017,02,17,01,25,6.10
2017,02,17,01,26,6.20
2017,02,17,01,27,6.30
2017,02,17,01,28,6.40
2017,02,17,01,29,6.50
2017,02,17,01,30,6.60
2017,02,17,01,31,6.70
2017,02,17,01,32,6.70
2017,02,17,01,33,6.80
2017,02,17,01,34,6.90
2017,02,17,01,35,6.90
2017,02,17,01,36,7.00
2017,02,17,01,37,7.10
2017,02,17,01,38,7.20
2017,02,17,01,39,7.20
2017,02,17,01,40,7.30
2017,02,17,01,41,7.30
2017,02,17,01,42,7.30
2017,02,17,01,43,7.30
2017,02,17,01,44,7.30
2017,02,17,01,45,7.30
2017,02,17,01,46,7.30
2017,02,17,01,47,7.30
2017,02,17,01,48,7.30
2017,02,17,01,49,7.30
2017,02,17,01,50,7.30
2017,02,17,01,51,7.30
2017,02,17,01,52,7.30
2017,02,17,01,53,7.30
2017,02,17,01,54,7.30
2017,02,17,01,55,7.30
2017,02,17,01,56,7.30
2017,02,17,01,57,7.20
2017,02,17,01,58,7.20
2017,02,17,01,59,7.20
2017,02,17,02,00,7.20
2017,02,17,02,01,7.20
2017,02,17,02,02,7.10
2017,02,17,02,03,7.10
2017,02,17,02,04,7.00
2017,02,17,02,05,6.90
2017,02,17,02,06,6.90
2017,02,17,02,07,6.90
2017,02,17,02,08,6.80
2017,02,17,02,09,6.80
2017,02,17,02,10,6.80
2017,02,17,02,11,6.80
2017,02,17,02,12,6.80
2017,02,17,02,13,6.80
2017,02,17,02,14,6.80
2017,02,17,02,15,6.80
2017,02,17,02,16,6.80
2017,02,17,02,17,6.90
2017,02,17,02,18,6.90
2017,02,17,02,19,6.90
2017,02,17,02,20,6.80
2017,02,17,02,21,6.80
2017,02,17,02,22,6.70
2017,02,17,02,23,6.70
2017,02,17,02,24,6.60
2017,02,17,02,25,6.60
2017,02,17,02,26,6.60
2017,02,17,02,27,6.60
2017,02,17,02,28,6.60
2017,02,17,02,29,6.60
2017,02,17,02,30,6.50
2017,02,17,02,31,6.40
2017,02,17,02,32,6.30
2017,02,17,02,33,6.20
2017,02,17,02,34,6.10
2017,02,17,02,35,6.00
2017,02,17,02,36,5.90
2017,02,17,02,37,5.80
2017,02,17,02,38,5.70
2017,02,17,02,39,5.70
2017,02,17,02,40,5.60
2017,02,17,02,41,5.60
2017,02,17,02,42,5.60
2017,02,17,02,43,5.50
2017,02,17,02,44,5.50
2017,02,17,02,45,5.40
2017,02,17,02,46,5.40
2017,02,17,02,47,5.30
2017,02,17,02,48,5.30
2017,02,17,02,49,5.30
2017,02,17,02,50,5.20
2017,02,17,02,51,5.20
2017,02,17,02,52,5.20
2017,02,17,02,53,5.10
2017,02,17,02,54,5.10
2017,02,17,02,55,5.10
2017,02,17,02,56,5.10
2017,02,17,02,57,5.10
2017,02,17,02,58,5.10
2017,02,17,02,59,5.10
2017,02,17,03,00,5.10
2017,02,17,03,01,5.10
2017,02,17,03,02,5.10
2017,02,17,03,03,5.00
2017,02,17,03,04,5.00
2017,02,17,03,05,4.90
2017,02,17,03,06,4.90
2017,02,17,03,07,4.90
2017,02,17,03,08,4.80
2017,02,17,03,09,4.80
2017,02,17,03,10,4.80
2017,02,17,03,11,4.80
2017,02,17,03,12,4.80
2017,02,17,03,13,4.80
2017,02,17,03,14,4.70
2017,02,17,03,15,4.70
2017,02,17,03,16,4.70
2017,02,17,03,17,4.60
2017,02,17,03,18,4.60
2017,02,17,03,19,4.60
2017,02,17,03,20,4.60
2017,02,17,03,21,4.60
2017,02,17,03,22,4.60
2017,02,17,03,23,4.60
2017,02,17,03,24,4.50
2017,02,17,03,25,4.50
2017,02,17,03,26,4.50
2017,02,17,03,27,4.40
2017,02,17,03,28,4.40
2017,02,17,03,29,4.40
2017,02,17,03,30,4.40
2017,02,17,03,31,4.30
2017,02,17,03,32,4.30
2017,02,17,03,33,4.30
2017,02,17,03,34,4.30
2017,02,17,03,35,4.20
2017,02,17,03,36,4.20
2017,02,17,03,37,4.20
2017,02,17,03,38,4.20
2017,02,17,03,39,4.20
2017,02,17,03,40,4.20
2017,02,17,03,41,4.20
2017,02,17,03,42,4.20
2017,02,17,03,43,4.20
2017,02,17,03,44,4.20
2017,02,17,03,45,4.20
2017,02,17,03,46,4.30
2017,02,17,03,47,4.30
2017,02,17,03,48,4.30
2017,02,17,03,49,4.30
2017,02,17,03,50,4.30
2017,02,17,03,51,4.20
2017,02,17,03,52,4.20
2017,02,17,03,53,4.20
2017,02,17,03,54,4.20
2017,02,17,03,55,4.10
2017,02,17,03,56,4.10
2017,02,17,03,57,4.10
2017,02,17,03,58,4.00
2017,02,17,03,59,4.00
2017,02,17,04,00,4.00
2017,02,17,04,01,3.90
2017,02,17,04,02,3.90
2017,02,17,04,03,3.90
2017,02,17,04,04,3.90
2017,02,17,04,05,3.90
2017,02,17,04,06,3.90
2017,02,17,04,07,3.90
2017,02,17,04,08,3.90
2017,02,17,04,09,3.90
2017,02,17,04,10,3.90
2017,02,17,04,11,3.90
2017,02,17,04,12,3.90
2017,02,17,04,13,3.80
2017,02,17,04,14,3.80
2017,02,17,04,15,3.70
2017,02,17,04,16,3.70
2017,02,17,04,17,3.70
2017,02,17,04,18,3.60
2017,02,17,04,19,3.60
2017,02,17,04,20,3.50
2017,02,17,04,21,3.50
2017,02,17,04,22,3.40
2017,02,17,04,23,3.40
2017,02,17,04,24,3.30
2017,02,17,04,25,3.30
2017,02,17,04,26,3.30
2017,02,17,04,27,3.30
2017,02,17,04,28,3.30
2017,02,17,04,29,3.40
2017,02,17,04,30,3.40
2017,02,17,04,31,3.50
2017,02,17,04,32,3.50
2017,02,17,04,33,3.60
2017,02,17,04,34,3.60
2017,02,17,04,35,3.60
2017,02,17,04,36,3.60
2017,02,17,04,37,3.60
2017,02,17,04,38,3.60
2017,02,17,04,39,3.60
2017,02,17,04,40,3.70
2017,02,17,04,41,3.60
2017,02,17,04,42,3.60
2017,02,17,04,43,3.60
2017,02,17,04,44,3.60
2017,02,17,04,45,3.60
2017,02,17,04,46,3.60
2017,02,17,04,47,3.60
2017,02,17,04,48,3.60
2017,02,17,04,49,3.50
2017,02,17,04,50,3.50
2017,02,17,04,51,3.40
2017,02,17,04,52,3.40
2017,02,17,04,53,3.40
2017,02,17,04,54,3.50
2017,02,17,04,55,3.50
2017,02,17,04,56,3.60
2017,02,17,04,57,3.70
2017,02,17,04,58,3.80
2017,02,17,04,59,3.80
2017,02,17,05,00,3.80
2017,02,17,05,01,3.80
2017,02,17,05,02,3.80
2017,02,17,05,03,3.80
2017,02,17,05,04,3.80
2017,02,17,05,05,3.80
2017,02,17,05,06,3.80
2017,02,17,05,07,3.80
2017,02,17,05,08,3.70
2017,02,17,05,09,3.80
2017,02,17,05,10,3.80
2017,02,17,05,11,3.80
2017,02,17,05,12,3.80
2017,02,17,05,13,3.80
2017,02,17,05,14,3.80
2017,02,17,05,15,3.90
2017,02,17,05,16,3.90
2017,02,17,05,17,3.90
2017,02,17,05,18,3.90
2017,02,17,05,19,3.80
2017,02,17,05,20,3.80
2017,02,17,05,21,3.80
2017,02,17,05,22,3.70
2017,02,17,05,23,3.70
2017,02,17,05,24,3.60
2017,02,17,05,25,3.60
2017,02,17,05,26,3.60
2017,02,17,05,27,3.50
2017,02,17,05,28,3.50
2017,02,17,05,29,3.40
2017,02,17,05,30,3.40
2017,02,17,05,31,3.40
2017,02,17,05,32,3.40
2017,02,17,05,33,3.30
2017,02,17,05,34,3.30
2017,02,17,05,35,3.30
2017,02,17,05,36,3.30
2017,02,17,05,37,3.30
2017,02,17,05,38,3.30
2017,02,17,05,39,3.20
2017,02,17,05,40,3.20
2017,02,17,05,41,3.20
2017,02,17,05,42,3.20
2017,02,17,05,43,3.20
2017,02,17,05,44,3.20
2017,02,17,05,45,3.20
2017,02,17,05,46,3.20
2017,02,17,05,47,3.20
2017,02,17,05,48,3.20
2017,02,17,05,49,3.20
2017,02,17,05,50,3.20
2017,02,17,05,51,3.20
2017,02,17,05,52,3.20
2017,02,17,05,53,3.20
2017,02,17,05,54,3.20
2017,02,17,05,55,3.20
2017,02,17,05,56,3.10
2017,02,17,05,57,3.10
2017,02,17,05,58,3.10
2017,02,17,05,59,3.10
2017,02,17,06,00,3.10
2017,02,17,06,01,3.10
2017,02,17,06,02,3.10
2017,02,17,06,03,3.20
2017,02,17,06,04,3.20
2017,02,17,06,05,3.20
2017,02,17,06,06,3.20
2017,02,17,06,07,3.20
2017,02,17,06,08,3.20
2017,02,17,06,09,3.20
2017,02,17,06,10,3.20
2017,02,17,06,11,3.10
2017,02,17,06,12,3.10
2017,02,17,06,13,3.10
2017,02,17,06,14,3.10
2017,02,17,06,15,3.10
2017,02,17,06,16,3.10
2017,02,17,06,17,3.10
2017,02,17,06,18,3.10
2017,02,17,06,19,3.10
2017,02,17,06,20,3.10
2017,02,17,06,21,3.10
2017,02,17,06,22,3.00
2017,02,17,06,23,3.00
2017,02,17,06,24,3.00
2017,02,17,06,25,2.90
2017,02,17,06,26,2.90
2017,02,17,06,27,2.90
2017,02,17,06,28,2.90
2017,02,17,06,29,2.90
2017,02,17,06,30,2.80
2017,02,17,06,31,2.80
2017,02,17,06,32,2.80
2017,02,17,06,33,2.80
2017,02,17,06,34,2.80
2017,02,17,06,35,2.80
2017,02,17,06,36,2.80
2017,02,17,06,37,2.80
2017,02,17,06,38,2.80
2017,02,17,06,39,2.80
2017,02,17,06,40,2.80
2017,02,17,06,41,2.80
2017,02,17,06,42,2.90
2017,02,17,06,43,3.00
2017,02,17,06,44,3.00
2017,02,17,06,45,3.10
2017,02,17,06,46,3.20
2017,02,17,06,47,3.20
2017,02,17,06,48,3.30
2017,02,17,06,49,3.30
2017,02,17,06,50,3.30
2017,02,17,06,51,3.30
2017,02,17,06,52,3.30
2017,02,17,06,53,3.20
2017,02,17,06,54,3.30
2017,02,17,06,55,3.30
2017,02,17,06,56,3.30
2017,02,17,06,57,3.30
2017,02,17,06,58,3.30
2017,02,17,06,59,3.20
2017,02,17,07,00,3.20
2017,02,17,07,01,3.20
2017,02,17,07,02,3.20
2017,02,17,07,03,3.10
2017,02,17,07,04,3.10
2017,02,17,07,05,3.10
2017,02,17,07,06,3.10
2017,02,17,07,07,3.10
2017,02,17,07,08,3.10
2017,02,17,07,09,3.10
2017,02,17,07,10,3.00
2017,02,17,07,11,3.00
2017,02,17,07,12,2.90
2017,02,17,07,13,2.90
2017,02,17,07,14,2.90
2017,02,17,07,15,2.80
2017,02,17,07,16,2.80
2017,02,17,07,17,2.70
2017,02,17,07,18,2.70
2017,02,17,07,19,2.70
2017,02,17,07,20,2.70
2017,02,17,07,21,2.70
2017,02,17,07,22,2.60
2017,02,17,07,23,2.60
2017,02,17,07,24,2.60
2017,02,17,07,25,2.60
2017,02,17,07,26,2.60
2017,02,17,07,27,2.60
2017,02,17,07,28,2.60
2017,02,17,07,29,2.60
2017,02,17,07,30,2.60
2017,02,17,07,31,2.50
2017,02,17,07,32,2.50
2017,02,17,07,33,2.50
2017,02,17,07,34,2.50
2017,02,17,07,35,2.50
2017,02,17,07,36,2.50
2017,02,17,07,37,2.50
2017,02,17,07,38,2.50
2017,02,17,07,39,2.50
2017,02,17,07,40,2.40
2017,02,17,07,41,2.40
2017,02,17,07,42,2.40
2017,02,17,07,43,2.40
2017,02,17,07,44,2.40
2017,02,17,07,45,2.30
2017,02,17,07,46,2.30
2017,02,17,07,47,2.30
2017,02,17,07,48,2.30
2017,02,17,07,49,2.30
2017,02,17,07,50,2.30
2017,02,17,07,51,2.30
2017,02,17,07,52,2.30
2017,02,17,07,53,2.30
2017,02,17,07,54,2.30
2017,02,17,07,55,2.40
2017,02,17,07,56,2.40
2017,02,17,07,57,2.30
2017,02,17,07,58,2.30
2017,02,17,07,59,2.30
2017,02,17,08,00,2.30
2017,02,17,08,01,2.30
2017,02,17,08,02,2.30
2017,02,17,08,03,2.30
2017,02,17,08,04,2.30
2017,02,17,08,05,2.30
2017,02,17,08,06,2.30
2017,02,17,08,07,2.40
2017,02,17,08,08,2.40
2017,02,17,08,09,2.40
2017,02,17,08,10,2.40
2017,02,17,08,11,2.40
2017,02,17,08,12,2.40
2017,02,17,08,13,2.40
2017,02,17,08,14,2.40
2017,02,17,08,15,2.40
2017,02,17,08,16,2.40
2017,02,17,08,17,2.50
2017,02,17,08,18,2.50
2017,02,17,08,19,2.40
2017,02,17,08,20,2.40
2017,02,17,08,21,2.40
2017,02,17,08,22,2.40
2017,02,17,08,23,2.40
2017,02,17,08,24,2.40
2017,02,17,08,25,2.40
2017,02,17,08,26,2.40
2017,02,17,08,27,2.40
2017,02,17,08,28,2.40
2017,02,17,08,29,2.30
2017,02,17,08,30,2.30
2017,02,17,08,31,2.30
2017,02,17,08,32,2.30
2017,02,17,08,33,2.30
2017,02,17,08,34,2.30
2017,02,17,08,35,2.40
2017,02,17,08,36,2.40
2017,02,17,08,37,2.40
2017,02,17,08,38,2.40
2017,02,17,08,39,2.40
2017,02,17,08,40,2.40
2017,02,17,08,41,2.40
2017,02,17,08,42,2.40
2017,02,17,08,43,2.50
2017,02,17,08,44,2.50
2017,02,17,08,45,2.50
2017,02,17,08,46,2.60
2017,02,17,08,47,2.60
2017,02,17,08,48,2.70
2017,02,17,08,49,2.80
2017,02,17,08,50,2.80
2017,02,17,08,51,2.80
2017,02,17,08,52,2.80
2017,02,17,08,53,2.80
2017,02,17,08,54,2.80
2017,02,17,08,55,2.90
2017,02,17,08,56,2.90
2017,02,17,08,57,2.90
2017,02,17,08,58,2.90
2017,02,17,08,59,2.90
2017,02,17,09,00,3.00
2017,02,17,09,01,3.00
2017,02,17,09,02,3.00
2017,02,17,09,03,3.10
2017,02,17,09,04,3.10
2017,02,17,09,05,3.10
2017,02,17,09,06,3.20
2017,02,17,09,07,3.20
2017,02,17,09,08,3.20
2017,02,17,09,09,3.20
2017,02,17,09,10,3.30
2017,02,17,09,11,3.30
2017,02,17,09,12,3.40
2017,02,17,09,13,3.50
2017,02,17,09,14,3.50
2017,02,17,09,15,3.60
2017,02,17,09,16,3.70
2017,02,17,09,17,3.80
2017,02,17,09,18,3.80
2017,02,17,09,19,3.90
2017,02,17,09,20,4.00
2017,02,17,09,21,4.10
2017,02,17,09,22,4.20
2017,02,17,09,23,4.30
2017,02,17,09,24,4.40
2017,02,17,09,25,4.50
2017,02,17,09,26,4.60
2017,02,17,09,27,4.70
2017,02,17,09,28,4.80
2017,02,17,09,29,4.80
2017,02,17,09,30,4.90
2017,02,17,09,31,5.00
2017,02,17,09,32,5.10
2017,02,17,09,33,5.20
2017,02,17,09,34,5.30
2017,02,17,09,35,5.40
2017,02,17,09,36,5.50
2017,02,17,09,37,5.60
2017,02,17,09,38,5.70
2017,02,17,09,39,5.80
2017,02,17,09,40,5.80
2017,02,17,09,41,5.90
2017,02,17,09,42,6.00
2017,02,17,09,43,6.00
2017,02,17,09,44,6.10
2017,02,17,09,45,6.10
2017,02,17,09,46,6.20
2017,02,17,09,47,6.20
2017,02,17,09,48,6.20
2017,02,17,09,49,6.20
2017,02,17,09,50,6.20
2017,02,17,09,51,6.20
2017,02,17,09,52,6.30
2017,02,17,09,53,6.30
2017,02,17,09,54,6.30
2017,02,17,09,55,6.30
2017,02,17,09,56,6.30
2017,02,17,09,57,6.30
2017,02,17,09,58,6.30
2017,02,17,09,59,6.40
2017,02,17,10,00,6.40
2017,02,17,10,01,6.40
2017,02,17,10,02,6.40
2017,02,17,10,03,6.50
2017,02,17,10,04,6.50
2017,02,17,10,05,6.50
2017,02,17,10,06,6.60
2017,02,17,10,07,6.60
2017,02,17,10,08,6.60
2017,02,17,10,09,6.60
2017,02,17,10,10,6.70
2017,02,17,10,11,6.70
2017,02,17,10,12,6.70
2017,02,17,10,13,6.80
2017,02,17,10,14,6.80
2017,02,17,10,15,6.80
2017,02,17,10,16,6.90
2017,02,17,10,17,6.90
2017,02,17,10,18,6.90
2017,02,17,10,19,7.00
2017,02,17,10,20,7.00
2017,02,17,10,21,7.00
2017,02,17,10,22,7.10
2017,02,17,10,23,7.10
2017,02,17,10,24,7.10
2017,02,17,10,25,7.20
2017,02,17,10,26,7.20
2017,02,17,10,27,7.20
2017,02,17,10,28,7.20
2017,02,17,10,29,7.20
2017,02,17,10,30,7.30
2017,02,17,10,31,7.30
2017,02,17,10,32,7.30
2017,02,17,10,33,7.30
2017,02,17,10,34,7.40
2017,02,17,10,35,7.40
2017,02,17,10,36,7.40
2017,02,17,10,37,7.40
2017,02,17,10,38,7.40
2017,02,17,10,39,7.40
2017,02,17,10,40,7.30
2017,02,17,10,41,7.30
2017,02,17,10,42,7.30
2017,02,17,10,43,7.20
2017,02,17,10,44,7.20
2017,02,17,10,45,7.10
2017,02,17,10,46,7.10
2017,02,17,10,47,7.10
2017,02,17,10,48,7.00
2017,02,17,10,49,7.00
2017,02,17,10,50,6.90
2017,02,17,10,51,6.90
2017,02,17,10,52,6.90
2017,02,17,10,53,6.90
2017,02,17,10,54,6.90
2017,02,17,10,55,6.90
2017,02,17,10,56,6.90
2017,02,17,10,57,6.90
2017,02,17,10,58,6.90
2017,02,17,10,59,6.90
2017,02,17,11,00,6.90
2017,02,17,11,01,6.90
2017,02,17,11,02,6.90
2017,02,17,11,03,6.90
2017,02,17,11,04,7.00
2017,02,17,11,05,7.00
2017,02,17,11,06,7.00
2017,02,17,11,07,7.10
2017,02,17,11,08,7.10
2017,02,17,11,09,7.10
2017,02,17,11,10,7.10
2017,02,17,11,11,7.10
2017,02,17,11,12,7.10
2017,02,17,11,13,7.10
2017,02,17,11,14,7.10
2017,02,17,11,15,7.10
2017,02,17,11,16,7.20
2017,02,17,11,17,7.20
2017,02,17,11,18,7.20
2017,02,17,11,19,7.20
2017,02,17,11,20,7.20
2017,02,17,11,21,7.20
2017,02,17,11,22,7.20
2017,02,17,11,23,7.20
2017,02,17,11,24,7.20
2017,02,17,11,25,7.20
2017,02,17,11,26,7.20
2017,02,17,11,27,7.20
2017,02,17,11,28,7.20
2017,02,17,11,29,7.20
2017,02,17,11,30,7.10
2017,02,17,11,31,7.10
2017,02,17,11,32,7.10
2017,02,17,11,33,7.10
2017,02,17,11,34,7.10
2017,02,17,11,35,7.10
2017,02,17,11,36,7.10
2017,02,17,11,37,7.10
2017,02,17,11,38,7.10
2017,02,17,11,39,7.10
2017,02,17,11,40,7.10
2017,02,17,11,41,7.10
2017,02,17,11,42,7.20
2017,02,17,11,43,7.20
2017,02,17,11,44,7.20
2017,02,17,11,45,7.20
2017,02,17,11,46,7.20
2017,02,17,11,47,7.20
2017,02,17,11,48,7.20
2017,02,17,11,49,7.20
2017,02,17,11,50,7.30
2017,02,17,11,51,7.30
2017,02,17,11,52,7.20
2017,02,17,11,53,7.20
2017,02,17,11,54,7.20
2017,02,17,11,55,7.20
2017,02,17,11,56,7.20
2017,02,17,11,57,7.20
2017,02,17,11,58,7.20
2017,02,17,11,59,7.20
2017,02,17,12,00,7.20
2017,02,17,12,01,7.20
2017,02,17,12,02,7.20
2017,02,17,12,03,7.10
2017,02,17,12,04,7.10
2017,02,17,12,05,7.10
2017,02,17,12,06,7.10
2017,02,17,12,07,7.10
2017,02,17,12,08,7.10
2017,02,17,12,09,7.20
2017,02,17,12,10,7.20
2017,02,17,12,11,7.20
2017,02,17,12,12,7.20
2017,02,17,12,13,7.20
2017,02,17,12,14,7.20
2017,02,17,12,15,7.20
2017,02,17,12,16,7.20
2017,02,17,12,17,7.20
2017,02,17,12,18,7.30
2017,02,17,12,19,7.30
2017,02,17,12,20,7.30
2017,02,17,12,21,7.30
2017,02,17,12,22,7.30
2017,02,17,12,23,7.30
2017,02,17,12,24,7.30
2017,02,17,12,25,7.30
2017,02,17,12,26,7.30
2017,02,17,12,27,7.30
2017,02,17,12,28,7.30
2017,02,17,12,29,7.30
2017,02,17,12,30,7.30
2017,02,17,12,31,7.30
2017,02,17,12,32,7.40
2017,02,17,12,33,7.40
2017,02,17,12,34,7.40
2017,02,17,12,35,7.40
2017,02,17,12,36,7.40
2017,02,17,12,37,7.40
2017,02,17,12,38,7.40
2017,02,17,12,39,7.50
2017,02,17,12,40,7.50
2017,02,17,12,41,7.60
2017,02,17,12,42,7.60
2017,02,17,12,43,7.60
2017,02,17,12,44,7.60
2017,02,17,12,45,7.60
2017,02,17,12,46,7.60
2017,02,17,12,47,7.60
2017,02,17,12,48,7.60
2017,02,17,12,49,7.70
2017,02,17,12,50,7.70
2017,02,17,12,51,7.70
2017,02,17,12,52,7.70
2017,02,17,12,53,7.80
2017,02,17,12,54,7.80
2017,02,17,12,55,7.70
2017,02,17,12,56,7.70
2017,02,17,12,57,7.70
2017,02,17,12,58,7.70
2017,02,17,12,59,7.80
2017,02,17,13,00,7.80
2017,02,17,13,01,7.80
2017,02,17,13,02,7.90
2017,02,17,13,03,7.90
2017,02,17,13,04,7.90
2017,02,17,13,05,7.90
2017,02,17,13,06,7.90
2017,02,17,13,07,7.90
2017,02,17,13,08,7.90
2017,02,17,13,09,7.90
2017,02,17,13,10,8.00
2017,02,17,13,11,8.00
2017,02,17,13,12,8.00
2017,02,17,13,13,8.00
2017,02,17,13,14,8.10
2017,02,17,13,15,8.10
2017,02,17,13,16,8.10
2017,02,17,13,17,8.20
2017,02,17,13,18,8.20
2017,02,17,13,19,8.20
2017,02,17,13,20,8.30
2017,02,17,13,21,8.30
2017,02,17,13,22,8.20
2017,02,17,13,23,8.20
2017,02,17,13,24,8.20
2017,02,17,13,25,8.20
2017,02,17,13,26,8.20
2017,02,17,13,27,8.20
2017,02,17,13,28,8.20
2017,02,17,13,29,8.20
2017,02,17,13,30,8.20
2017,02,17,13,31,8.20
2017,02,17,13,32,8.20
2017,02,17,13,33,8.20
2017,02,17,13,34,8.20
2017,02,17,13,35,8.20
2017,02,17,13,36,8.20
2017,02,17,13,37,8.20
2017,02,17,13,38,8.20
2017,02,17,13,39,8.20
2017,02,17,13,40,8.20
2017,02,17,13,41,8.20
2017,02,17,13,42,8.20
2017,02,17,13,43,8.20
2017,02,17,13,44,8.20
2017,02,17,13,45,8.20
2017,02,17,13,46,8.20
2017,02,17,13,47,8.10
2017,02,17,13,48,8.10
2017,02,17,13,49,8.10
2017,02,17,13,50,8.10
2017,02,17,13,51,8.20
2017,02,17,13,52,8.20
2017,02,17,13,53,8.20
2017,02,17,13,54,8.20
2017,02,17,13,55,8.10
2017,02,17,13,56,8.10
2017,02,17,13,57,8.10
2017,02,17,13,58,8.20
2017,02,17,13,59,8.20
2017,02,17,14,00,8.20
2017,02,17,14,01,8.20
2017,02,17,14,02,8.20
2017,02,17,14,03,8.20
2017,02,17,14,04,8.20
2017,02,17,14,05,8.20
2017,02,17,14,06,8.20
2017,02,17,14,07,8.20
2017,02,17,14,08,8.20
2017,02,17,14,09,8.30
2017,02,17,14,10,8.30
2017,02,17,14,11,8.30
2017,02,17,14,12,8.30
2017,02,17,14,13,8.30
2017,02,17,14,14,8.30
2017,02,17,14,15,8.40
2017,02,17,14,16,8.40
2017,02,17,14,17,8.40
2017,02,17,14,18,8.40
2017,02,17,14,19,8.40
2017,02,17,14,20,8.40
2017,02,17,14,21,8.40
2017,02,17,14,22,8.40
2017,02,17,14,23,8.50
2017,02,17,14,24,8.50
2017,02,17,14,25,8.50
2017,02,17,14,26,8.60
2017,02,17,14,27,8.60
2017,02,17,14,28,8.70
2017,02,17,14,29,8.80
2017,02,17,14,30,8.90
2017,02,17,14,31,8.90
2017,02,17,14,32,9.00
2017,02,17,14,33,9.00
2017,02,17,14,34,9.10
2017,02,17,14,35,9.20
2017,02,17,14,36,9.30
2017,02,17,14,37,9.30
2017,02,17,14,38,9.40
2017,02,17,14,39,9.40
2017,02,17,14,40,9.40
2017,02,17,14,41,9.40
2017,02,17,14,42,9.40
2017,02,17,14,43,9.40
2017,02,17,14,44,9.50
2017,02,17,14,45,9.50
2017,02,17,14,46,9.50
2017,02,17,14,47,9.60
2017,02,17,14,48,9.60
2017,02,17,14,49,9.60
2017,02,17,14,50,9.60
2017,02,17,14,51,9.60
2017,02,17,14,52,9.60
2017,02,17,14,53,9.60
2017,02,17,14,54,9.50
2017,02,17,14,55,9.40
2017,02,17,14,56,9.40
2017,02,17,14,57,9.40
2017,02,17,14,58,9.40
2017,02,17,14,59,9.50
2017,02,17,15,00,9.50
2017,02,17,15,01,9.50
2017,02,17,15,02,9.60
2017,02,17,15,03,9.60
2017,02,17,15,04,9.70
2017,02,17,15,05,9.70
2017,02,17,15,06,9.70
2017,02,17,15,07,9.70
2017,02,17,15,08,9.70
2017,02,17,15,09,9.60
2017,02,17,15,10,9.60
2017,02,17,15,11,9.50
2017,02,17,15,12,9.50
2017,02,17,15,13,9.40
2017,02,17,15,14,9.40
2017,02,17,15,15,9.30
2017,02,17,15,16,9.30
2017,02,17,15,17,9.20
2017,02,17,15,18,9.10
2017,02,17,15,19,9.10
2017,02,17,15,20,9.00
2017,02,17,15,21,8.90
2017,02,17,15,22,8.90
2017,02,17,15,23,8.80
2017,02,17,15,24,8.80
2017,02,17,15,25,8.80
2017,02,17,15,26,8.70
2017,02,17,15,27,8.70
2017,02,17,15,28,8.70
2017,02,17,15,29,8.70
2017,02,17,15,30,8.80
2017,02,17,15,31,8.80
2017,02,17,15,32,8.80
2017,02,17,15,33,8.80
2017,02,17,15,34,8.80
2017,02,17,15,35,8.90
2017,02,17,15,36,8.90
2017,02,17,15,37,8.90
2017,02,17,15,38,8.90
2017,02,17,15,39,9.00
2017,02,17,15,40,9.00
2017,02,17,15,41,9.10
2017,02,17,15,42,9.10
2017,02,17,15,43,9.10
2017,02,17,15,44,9.10
2017,02,17,15,45,9.10
2017,02,17,15,46,9.10
2017,02,17,15,47,9.20
2017,02,17,15,48,9.20
2017,02,17,15,49,9.20
2017,02,17,15,50,9.10
2017,02,17,15,51,9.10
2017,02,17,15,52,9.10
2017,02,17,15,53,9.10
2017,02,17,15,54,9.10
2017,02,17,15,55,9.10
2017,02,17,15,56,9.10
2017,02,17,15,57,9.10
2017,02,17,15,58,9.10
2017,02,17,15,59,9.10
2017,02,17,16,00,9.10
2017,02,17,16,01,9.20
2017,02,17,16,02,9.20
2017,02,17,16,03,9.20
2017,02,17,16,04,9.20
2017,02,17,16,05,9.20
2017,02,17,16,06,9.20
2017,02,17,16,07,9.20
2017,02,17,16,08,9.20
2017,02,17,16,09,9.20
2017,02,17,16,10,9.10
2017,02,17,16,11,9.10
2017,02,17,16,12,9.10
2017,02,17,16,13,9.10
2017,02,17,16,14,9.10
2017,02,17,16,15,9.10
2017,02,17,16,16,9.10
2017,02,17,16,17,9.00
2017,02,17,16,18,9.00
2017,02,17,16,19,9.00
2017,02,17,16,20,8.90
2017,02,17,16,21,8.90
2017,02,17,16,22,8.90
2017,02,17,16,23,9.00
2017,02,17,16,24,9.00
2017,02,17,16,25,9.00
2017,02,17,16,26,9.00
2017,02,17,16,27,9.00
2017,02,17,16,28,9.00
2017,02,17,16,29,9.00
2017,02,17,16,30,9.00
2017,02,17,16,31,9.00
2017,02,17,16,32,8.90
2017,02,17,16,33,8.90
2017,02,17,16,34,8.90
2017,02,17,16,35,8.90
2017,02,17,16,36,8.80
2017,02,17,16,37,8.80
2017,02,17,16,38,8.80
2017,02,17,16,39,8.80
2017,02,17,16,40,8.80
2017,02,17,16,41,8.80
2017,02,17,16,42,8.80
2017,02,17,16,43,8.70
2017,02,17,16,44,8.70
2017,02,17,16,45,8.70
2017,02,17,16,46,8.70
2017,02,17,16,47,8.60
2017,02,17,16,48,8.60
2017,02,17,16,49,8.60
2017,02,17,16,50,8.60
2017,02,17,16,51,8.60
2017,02,17,16,52,8.50
2017,02,17,16,53,8.50
2017,02,17,16,54,8.50
2017,02,17,16,55,8.40
2017,02,17,16,56,8.40
2017,02,17,16,57,8.40
2017,02,17,16,58,8.40
2017,02,17,16,59,8.40
2017,02,17,17,00,8.30
2017,02,17,17,01,8.30
2017,02,17,17,02,8.20
2017,02,17,17,03,8.20
2017,02,17,17,04,8.10
2017,02,17,17,05,8.10
2017,02,17,17,06,8.00
2017,02,17,17,07,8.00
2017,02,17,17,08,7.90
2017,02,17,17,09,7.90
2017,02,17,17,10,7.80
2017,02,17,17,11,7.80
2017,02,17,17,12,7.70
2017,02,17,17,13,7.70
2017,02,17,17,14,7.60
2017,02,17,17,15,7.60
2017,02,17,17,16,7.50
2017,02,17,17,17,7.50
2017,02,17,17,18,7.40
2017,02,17,17,19,7.40
2017,02,17,17,20,7.40
2017,02,17,17,21,7.30
2017,02,17,17,22,7.30
2017,02,17,17,23,7.30
2017,02,17,17,24,7.30
2017,02,17,17,25,7.20
2017,02,17,17,26,7.20
2017,02,17,17,27,7.20
2017,02,17,17,28,7.10
2017,02,17,17,29,7.10
2017,02,17,17,30,7.10
2017,02,17,17,31,7.00
2017,02,17,17,32,7.00
2017,02,17,17,33,6.90
2017,02,17,17,34,6.90
2017,02,17,17,35,6.80
2017,02,17,17,36,6.80
2017,02,17,17,37,6.80
2017,02,17,17,38,6.80
2017,02,17,17,39,6.70
2017,02,17,17,40,6.70
2017,02,17,17,41,6.70
2017,02,17,17,42,6.70
2017,02,17,17,43,6.70
2017,02,17,17,44,6.70
2017,02,17,17,45,6.60
2017,02,17,17,46,6.60
2017,02,17,17,47,6.60
2017,02,17,17,48,6.60
2017,02,17,17,49,6.60
2017,02,17,17,50,6.60
2017,02,17,17,51,6.60
2017,02,17,17,52,6.60
2017,02,17,17,53,6.60
2017,02,17,17,54,6.60
2017,02,17,17,55,6.50
2017,02,17,17,56,6.50
2017,02,17,17,57,6.50
2017,02,17,17,58,6.50
2017,02,17,17,59,6.40
2017,02,17,18,00,6.40
2017,02,17,18,01,6.40
2017,02,17,18,02,6.30
2017,02,17,18,03,6.30
2017,02,17,18,04,6.30
2017,02,17,18,05,6.20
2017,02,17,18,06,6.20